| time (UTC) | temp F | wind direction | speed MPH | gust MPH | rain 1hr in | rain 24hr in | rain mn in | humidity % | barometer mb |
| 20260504020630 | 56 | 237 | 4.0 | 9.0 | 0.00 | 0.00 | 0.00 | 54 | 1012.5 |
| 20260504015131 | 56 | 236 | 5.0 | 8.0 | 0.00 | 0.00 | 0.00 | 58 | 1012.4 |
| 20260504013627 | 56 | 254 | 4.0 | 5.0 | 0.00 | 0.00 | 0.00 | 57 | 1012.3 |
| 20260504012125 | 57 | 255 | 3.0 | 6.0 | 0.00 | 0.00 | 0.00 | 45 | 1011.9 |
| 20260504010620 | 57 | 239 | 2.0 | 6.0 | 0.00 | 0.00 | 0.00 | 44 | 1011.8 |
| 20260504005115 | 57 | 237 | 2.0 | 4.0 | 0.00 | 0.00 | 0.00 | 45 | 1011.7 |
| 20260504003613 | 57 | 261 | 4.0 | 6.0 | 0.00 | 0.00 | 0.00 | 47 | 1011.5 |
| 20260504002110 | 58 | 273 | 4.0 | 7.0 | 0.00 | 0.00 | 0.00 | 46 | 1011.4 |
| 20260504000606 | 58 | 242 | 5.0 | 6.0 | 0.00 | 0.00 | 0.00 | 41 | 1011.2 |
| 20260503235104 | 59 | 258 | 6.0 | 6.0 | 0.00 | 0.00 | 0.00 | 38 | 1010.9 |
| 20260503233602 | 59 | 244 | 7.0 | 12.0 | 0.00 | 0.00 | 0.00 | 42 | 1010.7 |
| 20260503232058 | 61 | 259 | 3.0 | 12.0 | 0.00 | 0.00 | 0.00 | 29 | 1010.5 |
| 20260503230555 | 62 | 81 | 0.0 | 10.0 | 0.00 | 0.00 | 0.00 | 28 | 1010.5 |
| 20260503225050 | 62 | 321 | 2.0 | 7.0 | 0.00 | 0.00 | 0.00 | 28 | 1010.6 |
| 20260503223550 | 63 | 340 | 6.0 | 8.0 | 0.00 | 0.00 | 0.00 | 26 | 1010.4 |
| 20260503222047 | 62 | 1 | 4.0 | 14.0 | 0.00 | 0.00 | 0.00 | 26 | 1010.4 |
| 20260503220543 | 62 | 4 | 3.0 | 20.0 | 0.00 | 0.00 | 0.00 | 26 | 1010.6 |
| 20260503215040 | 62 | 324 | 4.0 | 17.0 | 0.00 | 0.00 | 0.00 | 26 | 1010.7 |
| 20260503213538 | 62 | 350 | 7.0 | 19.0 | 0.00 | 0.00 | 0.00 | 26 | 1010.5 |
| 20260503212036 | 62 | 341 | 8.0 | 14.0 | 0.00 | 0.00 | 0.00 | 27 | 1010.3 |
| 20260503210531 | 61 | 270 | 4.0 | 14.0 | 0.00 | 0.00 | 0.00 | 28 | 1010.4 |
| 20260503205026 | 61 | 15 | 6.0 | 15.0 | 0.00 | 0.00 | 0.00 | 27 | 1010.0 |
| 20260503203522 | 62 | 290 | 3.0 | 9.0 | 0.00 | 0.00 | 0.00 | 28 | 1010.3 |
| 20260503202021 | 60 | 265 | 9.0 | 12.0 | 0.00 | 0.00 | 0.00 | 28 | 1010.4 |
| 20260503200518 | 61 | 289 | 11.0 | 12.0 | 0.00 | 0.00 | 0.00 | 29 | 1010.6 |
| 20260503195014 | 59 | 342 | 8.0 | 18.0 | 0.00 | 0.00 | 0.00 | 29 | 1010.9 |
| 20260503193514 | 60 | 337 | 9.0 | 13.0 | 0.00 | 0.00 | 0.00 | 30 | 1010.9 |
| 20260503192014 | 60 | 101 | 3.0 | 16.0 | 0.00 | 0.00 | 0.00 | 30 | 1010.9 |
| 20260503190510 | 59 | 295 | 8.0 | 13.0 | 0.00 | 0.00 | 0.00 | 31 | 1011.0 |
| 20260503185009 | 60 | 12 | 6.0 | 6.0 | 0.00 | 0.00 | 0.00 | 32 | 1011.1 |
| 20260503183504 | 58 | 320 | 9.0 | 17.0 | 0.00 | 0.00 | 0.00 | 34 | 1011.5 |
| 20260503182003 | 58 | 242 | 4.0 | 11.0 | 0.00 | 0.00 | 0.00 | 34 | 1011.6 |
| 20260503180500 | 56 | 282 | 7.0 | 16.0 | 0.00 | 0.00 | 0.00 | 35 | 1011.6 |
| 20260503174956 | 55 | 343 | 5.0 | 19.0 | 0.00 | 0.00 | 0.00 | 36 | 1011.5 |
| 20260503173451 | 56 | 7 | 4.0 | 15.0 | 0.00 | 0.00 | 0.00 | 37 | 1011.5 |
| 20260503171948 | 55 | 261 | 3.0 | 13.0 | 0.00 | 0.00 | 0.00 | 37 | 1011.5 |
| 20260503170444 | 54 | 242 | 9.0 | 10.0 | 0.00 | 0.00 | 0.00 | 40 | 1011.7 |
| 20260503150420 | 53 | 326 | 6.0 | 13.0 | 0.00 | 0.00 | 0.00 | 35 | 1011.9 |
| 20260503130356 | 49 | 317 | 7.0 | 13.0 | 0.00 | 0.00 | 0.00 | 50 | 1012.3 |
| 20260503110337 | 46 | 3 | 8.0 | 15.0 | 0.00 | 0.00 | 0.00 | 53 | 1011.4 |
| 20260503090320 | 48 | 350 | 6.0 | 6.0 | 0.00 | 0.00 | 0.00 | 50 | 1010.2 |
| 20260503080311 | 49 | 312 | 6.0 | 13.0 | 0.00 | 0.00 | 0.00 | 48 | 1010.1 |
| 20260503071757 | 51 | 350 | 6.0 | 9.0 | 0.00 | 0.00 | 0.00 | 46 | 1010.0 |
| 20260503070255 | 51 | 1 | 3.0 | 8.0 | 0.00 | 0.00 | 0.00 | 45 | 1010.1 |
| 20260503060250 | 52 | 54 | 2.0 | 7.0 | 0.00 | 0.00 | 0.00 | 44 | 1010.3 |
| 20260503054749 | 53 | 17 | 4.0 | 7.0 | 0.00 | 0.00 | 0.00 | 45 | 1010.1 |
| 20260503053248 | 53 | 39 | 2.0 | 11.0 | 0.00 | 0.00 | 0.00 | 44 | 1010.4 |
| 20260503051748 | 53 | 21 | 4.0 | 10.0 | 0.00 | 0.00 | 0.00 | 41 | 1010.6 |
| 20260503050244 | 53 | 333 | 3.0 | 11.0 | 0.00 | 0.00 | 0.00 | 40 | 1010.7 |
| 20260503044741 | 54 | 337 | 10.0 | 10.0 | 0.00 | 0.00 | 0.00 | 39 | 1010.8 |
| 20260503043239 | 54 | 349 | 6.0 | 13.0 | 0.00 | 0.00 | 0.00 | 38 | 1010.8 |
| 20260503041739 | 54 | 357 | 7.0 | 13.0 | 0.00 | 0.00 | 0.00 | 37 | 1011.0 |
| 20260503040238 | 55 | 351 | 5.0 | 12.0 | 0.00 | 0.00 | 0.00 | 37 | 1010.9 |
| 20260503034735 | 55 | 332 | 7.0 | 13.0 | 0.00 | 0.00 | 0.00 | 37 | 1011.0 |
| 20260503033232 | 55 | 315 | 6.0 | 10.0 | 0.00 | 0.00 | 0.00 | 36 | 1010.7 |
| 20260503031731 | 56 | 331 | 6.0 | 11.0 | 0.00 | 0.00 | 0.00 | 35 | 1010.5 |
| 20260503030227 | 56 | 20 | 2.0 | 13.0 | 0.00 | 0.00 | 0.00 | 35 | 1010.9 |
| 20260503024724 | 56 | 350 | 6.0 | 9.0 | 0.00 | 0.00 | 0.00 | 36 | 1010.8 |
| 20260503023220 | 56 | 343 | 4.0 | 4.0 | 0.00 | 0.00 | 0.00 | 36 | 1010.6 |
| 20260503021719 | 56 | 328 | 9.0 | 11.0 | 0.00 | 0.00 | 0.00 | 35 | 1010.6 |